AirNav   TITAN Aviation Fuels
 
 593 users online  

NH76 Mason Airfield
Mason, New Hampshire, USA

GOING TO MASON?


FAA INFORMATION EFFECTIVE 09 SEPTEMBER 2021

Location

FAA Identifier: NH76
Lat/Long: 42-43-44.3100N 071-47-03.2600W
42-43.738500N 071-47.054333W
42.7289750,-71.7842389
(estimated)
Elevation: 740 ft. / 226 m (estimated)
Variation: 16W (1995)
From city: 1 mile SW of MASON, NH
Time zone: UTC -4 (UTC -5 during Standard Time)
Zip code: 03048

Airport Operations

Airport use: Private use. Permission required prior to landing
Activation date: 03/2000
Control tower: no
ARTCC: BOSTON CENTER
FSS: BANGOR FLIGHT SERVICE STATION
Attendance: UNATNDD
Segmented circle: no

Airport Communications

WX ASOS at FIT (11 nm S): 135.175 (978-343-9121)
WX ASOS at AFN (11 nm NW): 135.875 (603-532-6195)
WX AWOS-3PT at ASH (12 nm E): 125.1 (603-578-0473)
WX ASOS at MHT (20 nm NE): 119.55 (603-621-1766)

Nearby radio navigation aids

VOR radial/distance  VOR name  Freq  Var
GDMr062/16.3GARDNER VOR/DME110.6014W
MHTr260/20.1MANCHESTER VOR/DME114.4015W
EENr114/22.7KEENE VORTAC109.4014W
CONr212/30.8CONCORD VOR/DME112.9015W

 
NDB name  Hdg/Dist  Freq  Var  ID
FITZY249/13.920915WMJ -- .---

Airport Services

Runway Information

Runway 15/33

Dimensions: 2700 x 100 ft. / 823 x 30 m
Surface: turf
RUNWAY 15  RUNWAY 33
Traffic pattern: leftleft

Airport Ownership and Management from official FAA records

Ownership: Privately-owned
Owner: MICHAEL FARREY
492 OLD ASHBY RD
MASON, NH 03048
Phone 603-878-1622
Manager: MICHAEL FARREY
492 OLD ASHBY RD
MASON, NH 03048
Phone 603-878-1622

Additional Remarks

A52-15 200 FT HILL 1 1/2 MI NW; 38 FT HILL 1/2 MI E.
FOR CD CTC BOSTON APCH AT 603-594-5551.

Instrument Procedures

There are no published instrument procedures at NH76.

Some nearby airports with instrument procedures:

KFIT - Fitchburg Municipal Airport (11 nm S)
KAFN - Jaffrey/Silver Ranch Airport (11 nm NW)
KASH - Boire Field Airport (12 nm E)
KGDM - Gardner Municipal Airport (15 nm SW)
KMHT - Manchester Airport (20 nm NE)
6B6 - Minute Man Air Field (20 nm SE)
 
Loc | Ops | Rwys | IFR | FBO | Links
Com | Nav | Svcs | Stats | Notes
Area around NH76 (Mason Airfield)
 
Road maps at: MapQuest Bing Google
 
Aerial photo
WARNING: Photo may not be current or correct
Aerial photo of NH76 (Mason Airfield)
Photo by Bruce Vinal, Aerial Perspectives
Photo taken 20-Oct-2010
looking northwest.

Do you have a better or more recent aerial photo of Mason Airfield that you would like to share? If so, please send us your photo.

 
Sectional chart

 
Airport distance calculator
Flying to Mason Airfield? Find the distance to fly.

From to NH76

Sunrise and sunset
Times for 24-Sep-2021
 Local
(UTC-4)
 Zulu
(UTC)
Morning civil twilight06:0910:09
Sunrise06:3810:38
Sunset18:4122:41
Evening civil twilight19:0923:09

Current date and time
Zulu (UTC)  24-Sep-2021 05:40:02
Local (UTC-4)  24-Sep-2021 01:40:02
 
METAR
KAFN 
10nm NW 
240452Z AUTO 15008G17KT 10SM OVC009 22/21 A3005 RMK AO2 CIG 008V012 SLP174 P0001 T02170206 402560200
KFIT 
11nm S 
240452Z AUTO 15009KT 10SM BKN011 OVC019 22/19 A3004 RMK AO2 SLP173 T02170194 402670200
KASH 
12nm E 
240507Z AUTO 12008KT 10SM BKN007 BKN027 OVC075 21/21 A3005 RMK AO2
KMHT 
20nm NE 
240453Z 13009KT 10SM FEW011 BKN040 BKN075 22/19 A3003 RMK AO2 SLP180 T02170189 402670200
TAF
KMHT 
20nm NE 
240214Z 2402/2424 11007KT P6SM BKN023 BKN250 FM240600 13008KT 3SM BR BKN020 FM241000 14009G15KT 3SM BR VCSH OVC005 FM241700 14008KT 5SM -TSRA BR OVC015CB FM242200 12007KT P6SM OVC015
NOTAMs
Click for the latest NOTAMs
NOTAMs are issued by the DoD/FAA and will open in a separate window not controlled by AirNav.

 

 
 

Would you like to see your business listed on this page?

 If your business provides an interesting product or service to pilots, flight crews, aircraft, or users of the Mason Airfield, you should consider listing it here.  To start the listing process, click on the button below
 
Add a business
 

Other Pages about Mason Airfield

Update a link
 
Copyright © AirNav, LLC. All rights reserved. Privacy Policy  Contact